TimeCST,TemperatureF,Dew PointF,Humidity,Sea Level PressureIn,VisibilityMPH,Wind Direction,Wind SpeedMPH,Gust SpeedMPH,PrecipitationIn,Events,Conditions,WindDirDegrees,DateUTC
12:15 AM,42.8,30.2,61,30.34,10.0,South,10.4,-,N/A,,Clear,170,2012-11-17 06:15:00
12:35 AM,42.8,28.4,57,30.34,10.0,South,9.2,16.1,N/A,,Clear,170,2012-11-17 06:35:00
12:55 AM,42.8,30.2,61,30.33,10.0,South,10.4,18.4,N/A,,Clear,170,2012-11-17 06:55:00
1:15 AM,42.8,28.4,57,30.33,10.0,South,10.4,17.3,N/A,,Clear,170,2012-11-17 07:15:00
1:35 AM,41.0,30.2,65,30.33,10.0,South,12.7,18.4,N/A,,Clear,180,2012-11-17 07:35:00
1:55 AM,39.2,28.4,65,30.34,10.0,South,11.5,18.4,N/A,,Clear,180,2012-11-17 07:55:00
2:15 AM,39.2,30.2,70,30.34,10.0,South,9.2,16.1,N/A,,Clear,180,2012-11-17 08:15:00
2:35 AM,39.2,28.4,65,30.34,10.0,South,9.2,-,N/A,,Clear,180,2012-11-17 08:35:00
2:55 AM,39.2,30.2,70,30.34,10.0,South,9.2,-,N/A,,Clear,180,2012-11-17 08:55:00
3:15 AM,39.2,30.2,70,30.33,10.0,South,10.4,-,N/A,,Clear,170,2012-11-17 09:15:00
3:35 AM,39.2,30.2,70,30.33,10.0,South,11.5,16.1,N/A,,Clear,170,2012-11-17 09:35:00
3:55 AM,39.2,30.2,70,30.32,10.0,South,10.4,16.1,N/A,,Clear,170,2012-11-17 09:55:00
4:15 AM,39.2,30.2,70,30.32,10.0,South,8.1,-,N/A,,Clear,170,2012-11-17 10:15:00
4:35 AM,39.2,30.2,70,30.32,10.0,South,11.5,-,N/A,,Clear,170,2012-11-17 10:35:00
4:55 AM,39.2,30.2,70,30.32,10.0,South,9.2,17.3,N/A,,Clear,170,2012-11-17 10:55:00
5:15 AM,39.2,30.2,70,30.31,10.0,South,10.4,16.1,N/A,,Clear,170,2012-11-17 11:15:00
5:35 AM,39.2,30.2,70,30.32,10.0,South,9.2,17.3,N/A,,Clear,170,2012-11-17 11:35:00
5:55 AM,39.2,32.0,75,30.32,10.0,South,10.4,17.3,N/A,,Clear,170,2012-11-17 11:55:00
6:15 AM,39.2,30.2,70,30.31,10.0,South,10.4,17.3,N/A,,Clear,170,2012-11-17 12:15:00
6:35 AM,39.2,32.0,75,30.31,10.0,South,11.5,18.4,N/A,,Clear,170,2012-11-17 12:35:00
6:55 AM,39.2,30.2,70,30.31,10.0,South,10.4,16.1,N/A,,Clear,170,2012-11-17 12:55:00
7:15 AM,39.2,30.2,70,30.31,10.0,South,10.4,16.1,N/A,,Clear,170,2012-11-17 13:15:00
7:35 AM,39.2,32.0,75,30.32,10.0,South,10.4,17.3,N/A,,Clear,170,2012-11-17 13:35:00
7:55 AM,41.0,32.0,70,30.32,10.0,South,11.5,18.4,N/A,,Clear,170,2012-11-17 13:55:00
8:15 AM,41.0,32.0,70,30.32,10.0,South,10.4,17.3,N/A,,Clear,170,2012-11-17 14:15:00
8:35 AM,42.8,33.8,70,30.32,10.0,South,10.4,-,N/A,,Clear,170,2012-11-17 14:35:00
8:55 AM,42.8,33.8,70,30.32,10.0,South,10.4,16.1,N/A,,Clear,180,2012-11-17 14:55:00
9:15 AM,44.6,33.8,66,30.32,10.0,South,10.4,16.1,N/A,,Clear,180,2012-11-17 15:15:00
9:35 AM,46.4,33.8,62,30.32,10.0,South,10.4,20.7,N/A,,Clear,180,2012-11-17 15:35:00
9:55 AM,48.2,35.6,62,30.32,10.0,South,12.7,19.6,N/A,,Clear,180,2012-11-17 15:55:00
10:15 AM,48.2,33.8,58,30.32,10.0,South,13.8,-,N/A,,Clear,180,2012-11-17 16:15:00
10:35 AM,50.0,35.6,58,30.32,10.0,South,12.7,18.4,N/A,,Clear,190,2012-11-17 16:35:00
10:55 AM,51.8,35.6,54,30.31,10.0,South,15.0,24.2,N/A,,Clear,190,2012-11-17 16:55:00
11:15 AM,55.4,35.6,47,30.30,10.0,South,20.7,24.2,N/A,,Clear,190,2012-11-17 17:15:00
11:35 AM,55.4,35.6,47,30.29,10.0,SSW,18.4,24.2,N/A,,Clear,200,2012-11-17 17:35:00
11:55 AM,55.4,35.6,47,30.29,10.0,South,18.4,23.0,N/A,,Clear,180,2012-11-17 17:55:00
12:15 PM,55.4,35.6,47,30.28,10.0,South,16.1,23.0,N/A,,Clear,180,2012-11-17 18:15:00
12:35 PM,55.4,35.6,47,30.27,10.0,South,17.3,23.0,N/A,,Clear,180,2012-11-17 18:35:00
12:55 PM,57.2,35.6,44,30.26,10.0,South,18.4,26.5,N/A,,Clear,190,2012-11-17 18:55:00
1:15 PM,57.2,35.6,44,30.25,10.0,South,19.6,29.9,N/A,,Clear,180,2012-11-17 19:15:00
1:35 PM,59.0,35.6,42,30.24,10.0,South,18.4,31.1,N/A,,Clear,190,2012-11-17 19:35:00
1:55 PM,59.0,33.8,39,30.23,10.0,South,18.4,26.5,N/A,,Clear,190,2012-11-17 19:55:00
2:15 PM,57.2,33.8,41,30.22,10.0,South,19.6,26.5,N/A,,Clear,180,2012-11-17 20:15:00
2:35 PM,57.2,33.8,41,30.22,10.0,South,16.1,25.3,N/A,,Clear,170,2012-11-17 20:35:00
2:55 PM,59.0,33.8,39,30.22,10.0,South,17.3,26.5,N/A,,Clear,180,2012-11-17 20:55:00
3:15 PM,59.0,33.8,39,30.21,10.0,South,16.1,26.5,N/A,,Clear,170,2012-11-17 21:15:00
3:35 PM,57.2,33.8,41,30.22,10.0,South,19.6,24.2,N/A,,Clear,170,2012-11-17 21:35:00
3:55 PM,57.2,32.0,38,30.22,10.0,South,17.3,25.3,N/A,,Clear,180,2012-11-17 21:55:00
4:15 PM,57.2,33.8,41,30.22,10.0,South,15.0,20.7,N/A,,Clear,170,2012-11-17 22:15:00
4:35 PM,57.2,30.2,36,30.22,10.0,South,12.7,21.9,N/A,,Clear,170,2012-11-17 22:35:00
4:55 PM,55.4,33.8,44,30.22,10.0,South,9.2,20.7,N/A,,Clear,170,2012-11-17 22:55:00
5:15 PM,55.4,33.8,44,30.22,10.0,South,10.4,18.4,N/A,,Clear,170,2012-11-17 23:15:00
5:35 PM,53.6,33.8,47,30.22,10.0,SSE,12.7,19.6,N/A,,Clear,160,2012-11-17 23:35:00
5:55 PM,53.6,33.8,47,30.23,10.0,South,15.0,20.7,N/A,,Clear,170,2012-11-17 23:55:00
6:15 PM,53.6,32.0,44,30.22,10.0,South,11.5,19.6,N/A,,Clear,170,2012-11-18 00:15:00
6:35 PM,53.6,32.0,44,30.22,10.0,South,13.8,21.9,N/A,,Clear,170,2012-11-18 00:35:00
6:55 PM,51.8,32.0,47,30.21,10.0,SSE,16.1,21.9,N/A,,Scattered Clouds,160,2012-11-18 00:55:00
7:15 PM,51.8,32.0,47,30.21,10.0,South,11.5,21.9,N/A,,Partly Cloudy,170,2012-11-18 01:15:00
7:35 PM,51.8,32.0,47,30.21,10.0,South,15.0,23.0,N/A,,Clear,170,2012-11-18 01:35:00
7:55 PM,51.8,30.2,44,30.21,10.0,South,15.0,23.0,N/A,,Scattered Clouds,170,2012-11-18 01:55:00
8:15 PM,51.8,30.2,44,30.22,10.0,South,15.0,24.2,N/A,,Overcast,170,2012-11-18 02:15:00
8:35 PM,51.8,32.0,47,30.22,10.0,South,13.8,27.6,N/A,,Overcast,170,2012-11-18 02:35:00
8:55 PM,51.8,32.0,47,30.22,10.0,South,19.6,31.1,N/A,,Overcast,180,2012-11-18 02:55:00
9:15 PM,51.8,32.0,47,30.23,10.0,South,17.3,27.6,N/A,,Overcast,180,2012-11-18 03:15:00
9:35 PM,51.8,32.0,47,30.23,10.0,South,19.6,29.9,N/A,,Overcast,180,2012-11-18 03:35:00
9:55 PM,51.8,30.2,44,30.23,10.0,South,17.3,24.2,N/A,,Overcast,170,2012-11-18 03:55:00
10:15 PM,51.8,32.0,47,30.23,10.0,South,18.4,31.1,N/A,,Overcast,180,2012-11-18 04:15:00
10:35 PM,51.8,30.2,44,30.23,10.0,South,18.4,27.6,N/A,,Overcast,170,2012-11-18 04:35:00
10:55 PM,50.0,32.0,50,30.22,10.0,South,16.1,24.2,N/A,,Overcast,170,2012-11-18 04:55:00
11:15 PM,48.2,30.2,50,30.22,10.0,South,17.3,21.9,N/A,,Overcast,180,2012-11-18 05:15:00
11:35 PM,48.2,32.0,54,30.22,10.0,South,15.0,24.2,N/A,,Overcast,170,2012-11-18 05:35:00
11:55 PM,48.2,30.2,50,30.22,10.0,South,15.0,20.7,N/A,,Overcast,170,2012-11-18 05:55:00